Location: Dead Woman Crossing
(43.5369°N, 106.3228°W)
Time: 07:33:37
(UTC+00:00)

M-CUBED/EXP-1 PRIME - Pass Details

Date: 30 June 2022
Orbit: 422 x 631 km, 101.7° (Epoch: 14 August)

Event Time Altitude Azimuth Distance (km) Brightness Sun altitude
Exits shadow 08:13:09 67° 359° (N) 471 ? -21.7°
Drops below altitude 10° 08:16:05 10° 343° (NNW) 1,565 ? -21.5°
Sets 08:18:09 0° 343° (NNW) 2,465 ? -21.4°
